EW0050 Weather Reports


Display with metric or nautical units.
time (UTC)temp
F
wind
direction
speed
MPH
gust
MPH
rain 1hr
in
rain 24hr
in
rain mn
in
humidity
%
barometer
mb
20180122002526 56 254 6.0 13.0 0.00 0.00 0.00 77 1015.9
20180122002035 56 257 6.0 12.0 0.00 0.00 0.00 77 1015.8
20180122001524 56 244 7.0 14.0 0.00 0.00 0.00 78 1015.7
20180122001033 56 265 6.0 14.0 0.00 0.00 0.00 78 1015.6
20180122000523 56 271 9.0 18.0 0.00 0.00 0.00 78 1015.7
20180122000033 56 304 10.0 18.0 0.00 0.00 0.00 78 1015.8
20180121235523 56 250 8.0 15.0 0.00 0.00 0.00 79 1015.8
20180121235036 56 265 7.0 17.0 0.00 0.00 0.00 78 1015.8
20180121234526 56 273 10.0 17.0 0.00 0.00 0.00 77 1015.7
20180121234032 57 266 9.0 18.0 0.00 0.00 0.00 77 1015.6
20180121233521 57 259 9.0 18.0 0.00 0.00 0.00 76 1015.6
20180121233029 57 315 8.0 18.0 0.00 0.00 0.00 76 1015.5
20180121232536 57 249 8.0 16.0 0.00 0.00 0.00 76 1015.5
20180121232023 57 267 7.0 17.0 0.00 0.00 0.00 75 1015.5
20180121231532 57 263 8.0 17.0 0.00 0.00 0.00 75 1015.4
20180121231019 57 270 9.0 14.0 0.00 0.00 0.00 75 1015.3
20180121230533 58 257 6.0 17.0 0.00 0.00 0.00 74 1015.3
20180121230021 57 276 8.0 17.0 0.00 0.00 0.00 74 1015.2
20180121225529 58 241 8.0 14.0 0.00 0.00 0.00 74 1015.4
20180121225035 58 252 7.0 14.0 0.00 0.00 0.00 73 1015.6
20180121224524 58 281 9.0 15.0 0.00 0.00 0.00 73 1015.6
20180121224030 58 277 8.0 15.0 0.00 0.00 0.00 73 1015.5
20180121223538 58 283 10.0 17.0 0.00 0.00 0.00 72 1015.3
20180121223026 58 257 8.0 19.0 0.00 0.00 0.00 72 1015.4
20180121222534 58 253 10.0 19.0 0.00 0.00 0.00 72 1015.4
20180121222026 58 247 10.0 18.0 0.00 0.00 0.00 71 1015.5
20180121221535 58 309 10.0 17.0 0.00 0.00 0.00 71 1015.3
20180121221023 58 248 10.0 17.0 0.00 0.00 0.00 71 1015.4
20180121220530 58 275 8.0 17.0 0.00 0.00 0.00 70 1015.3
20180121220019 59 260 8.0 17.0 0.00 0.00 0.00 69 1015.3
20180121215525 59 306 9.0 19.0 0.00 0.00 0.00 68 1015.3
20180121215032 59 296 10.0 18.0 0.00 0.00 0.00 67 1015.4
20180121214520 59 283 10.0 18.0 0.00 0.00 0.00 67 1015.2
20180121214027 59 260 10.0 18.0 0.00 0.00 0.00 67 1015.1
20180121213533 59 298 7.0 18.0 0.00 0.00 0.00 66 1015.1
20180121213026 59 316 7.0 15.0 0.00 0.00 0.00 66 1015.0
20180121212532 59 264 7.0 19.0 0.00 0.00 0.00 66 1015.1
20180121212020 59 275 9.0 20.0 0.00 0.00 0.00 66 1015.0
20180121211528 59 296 10.0 20.0 0.00 0.00 0.00 66 1015.0
20180121211036 59 275 9.0 20.0 0.00 0.00 0.00 66 1014.9
20180121210525 59 236 11.0 19.0 0.00 0.00 0.00 66 1014.9
20180121210033 59 260 9.0 16.0 0.00 0.00 0.00 66 1014.8
20180121205521 59 275 8.0 14.0 0.00 0.00 0.00 66 1014.8
20180121205028 59 267 7.0 16.0 0.00 0.00 0.00 66 1014.7
20180121204521 59 256 8.0 16.0 0.00 0.00 0.00 65 1014.7
20180121204029 59 257 7.0 16.0 0.00 0.00 0.00 65 1014.6
20180121203537 59 252 9.0 16.0 0.00 0.00 0.00 65 1014.6
20180121203026 59 278 9.0 16.0 0.00 0.00 0.00 65 1014.6
20180121202533 60 269 8.0 19.0 0.00 0.00 0.00 65 1014.5
20180121202023 60 286 9.0 20.0 0.00 0.00 0.00 65 1014.5
20180121201530 60 271 9.0 18.0 0.00 0.00 0.00 64 1014.4
20180121201038 60 279 8.0 15.0 0.00 0.00 0.00 64 1014.3
20180121200524 60 277 9.0 19.0 0.00 0.00 0.00 64 1014.2
20180121200038 60 285 8.0 19.0 0.00 0.00 0.00 64 1014.2
20180121195525 60 267 8.0 13.0 0.00 0.00 0.00 64 1014.1
20180121195032 60 232 7.0 17.0 0.00 0.00 0.00 64 1014.0
20180121194520 60 300 10.0 17.0 0.00 0.00 0.00 64 1013.9
20180121194027 60 296 8.0 23.0 0.00 0.00 0.00 64 1014.0
20180121193534 60 286 12.0 23.0 0.00 0.00 0.00 64 1013.9
20180121193023 60 300 10.0 23.0 0.00 0.00 0.00 64 1013.8
20180121192529 60 281 9.0 23.0 0.00 0.00 0.00 64 1013.8
20180121192039 60 269 8.0 20.0 0.00 0.00 0.00 64 1013.8
20180121191529 60 271 10.0 20.0 0.00 0.00 0.00 64 1013.8
20180121191037 60 295 10.0 21.0 0.00 0.00 0.00 64 1013.7
20180121190524 60 311 13.0 23.0 0.00 0.00 0.00 64 1013.5
20180121190033 60 295 12.0 23.0 0.00 0.00 0.00 64 1013.7
20180121185520 60 258 12.0 24.0 0.00 0.00 0.00 64 1013.6
20180121185029 60 260 13.0 24.0 0.00 0.00 0.00 64 1013.4
20180121184537 60 294 11.0 23.0 0.00 0.00 0.00 63 1013.4
20180121184026 60 283 11.0 24.0 0.00 0.00 0.00 64 1013.3
20180121183532 59 344 14.0 24.0 0.00 0.00 0.00 64 1013.2
20180121183024 59 282 13.0 26.0 0.00 0.00 0.00 64 1013.1
20180121182530 59 317 14.0 26.0 0.00 0.00 0.00 64 1013.0
20180121182038 59 315 14.0 26.0 0.00 0.00 0.00 64 1012.9
20180121181526 59 316 13.0 24.0 0.00 0.00 0.00 64 1012.9
20180121181033 59 257 13.0 24.0 0.00 0.00 0.00 64 1012.9
20180121180520 59 289 15.0 24.0 0.00 0.00 0.00 64 1013.0
20180121180029 59 271 13.0 25.0 0.00 0.00 0.00 64 1013.1
20180121175536 59 333 15.0 23.0 0.00 0.00 0.00 64 1013.0
20180121175023 59 280 13.0 22.0 0.00 0.00 0.00 64 1013.0
20180121174531 59 295 14.0 22.0 0.00 0.00 0.00 64 1013.0
20180121174023 59 315 11.0 23.0 0.00 0.00 0.00 64 1012.9
20180121173531 59 261 13.0 23.0 0.00 0.00 0.00 64 1012.9
20180121173021 59 309 13.0 25.0 0.00 0.00 0.00 65 1012.9
20180121172527 59 247 14.0 25.0 0.00 0.04 0.00 64 1012.8
20180121172034 59 262 14.0 21.0 0.00 0.04 0.00 64 1012.6
20180121171522 59 271 13.0 21.0 0.00 0.04 0.00 64 1012.6
20180121171029 59 339 12.0 23.0 0.00 0.04 0.00 64 1012.6
20180121170536 59 260 13.0 23.0 0.00 0.04 0.00 64 1012.6
20180121170025 59 254 10.0 22.0 0.00 0.04 0.00 63 1012.8
20180121165536 59 257 12.0 22.0 0.00 0.04 0.00 63 1012.9
20180121165024 59 279 11.0 22.0 0.00 0.04 0.00 63 1012.6
20180121164533 59 293 12.0 22.0 0.00 0.04 0.00 63 1012.5
20180121164020 59 279 12.0 22.0 0.00 0.04 0.00 62 1012.6
20180121163528 59 287 11.0 20.0 0.00 0.04 0.00 62 1012.6
20180121163036 59 257 11.0 21.0 0.00 0.04 0.00 62 1012.5
20180121162519 59 309 12.0 22.0 0.00 0.12 0.00 61 1012.6
20180121162023 60 251 10.0 22.0 0.00 0.12 0.00 61 1012.4
20180121161533 60 257 11.0 20.0 0.00 0.12 0.00 61 1012.3
20180121161024 60 309 12.0 21.0 0.00 0.12 0.00 61 1012.3
20180121160532 60 289 13.0 21.0 0.00 0.12 0.00 60 1012.3
20180121160020 60 256 11.0 20.0 0.00 0.12 0.00 60 1012.4
20180121155528 60 230 10.0 19.0 0.00 0.12 0.00 59 1012.3
20180121155035 61 296 11.0 22.0 0.00 0.12 0.00 58 1012.3
20180121154524 61 273 12.0 22.0 0.00 0.12 0.00 58 1012.2
20180121154030 61 290 11.0 20.0 0.00 0.12 0.00 57 1012.3
20180121153538 61 273 11.0 21.0 0.00 0.12 0.00 56 1012.2
20180121153027 61 273 13.0 22.0 0.00 0.12 0.00 56 1012.2
20180121152532 61 274 13.0 26.0 0.00 0.20 0.00 56 1012.2
20180121152024 61 242 15.0 26.0 0.00 0.20 0.00 55 1012.1
20180121151532 61 236 12.0 23.0 0.00 0.20 0.00 55 1012.1
20180121151020 61 272 12.0 24.0 0.00 0.20 0.00 56 1012.0
20180121150527 61 269 13.0 24.0 0.00 0.20 0.00 55 1012.0
20180121150038 61 290 13.0 22.0 0.00 0.20 0.00 55 1012.1
20180121145526 61 300 10.0 21.0 0.00 0.20 0.00 55 1012.1
20180121145035 61 244 12.0 22.0 0.00 0.20 0.00 55 1012.1
20180121144525 61 305 12.0 22.0 0.00 0.20 0.00 54 1012.0
20180121144031 61 265 11.0 22.0 0.00 0.20 0.00 54 1012.0
20180121143526 62 310 10.0 18.0 0.00 0.20 0.00 55 1012.0
20180121143035 62 279 10.0 21.0 0.00 0.20 0.00 53 1012.0
20180121142522 62 309 9.0 19.0 0.00 0.20 0.00 53 1012.0
20180121142029 62 313 10.0 19.0 0.00 0.20 0.00 53 1011.8
20180121141534 62 278 9.0 17.0 0.00 0.20 0.00 52 1012.0
20180121141019 62 305 10.0 21.0 0.00 0.20 0.00 52 1011.9
20180121140529 62 262 8.0 26.0 0.00 0.20 0.00 52 1011.9
20180121140038 62 283 11.0 30.0 0.00 0.20 0.00 51 1012.0
20180121135525 62 276 14.0 30.0 0.00 0.20 0.00 52 1011.8
20180121135037 62 271 10.0 29.0 0.00 0.20 0.00 52 1011.8
20180121134524 61 250 15.0 29.0 0.00 0.20 0.00 51 1011.6
20180121134030 62 271 11.0 22.0 0.00 0.20 0.00 52 1011.4
20180121133536 62 254 13.0 22.0 0.00 0.20 0.00 51 1011.2
20180121133026 62 292 15.0 24.0 0.00 0.20 0.00 50 1011.3
20180121132532 63 232 14.0 26.0 0.00 0.20 0.00 48 1011.6
20180121132018 63 269 9.0 26.0 0.00 0.20 0.00 46 1011.6
20180121131527 64 272 11.0 21.0 0.00 0.20 0.00 45 1011.4
20180121131034 64 265 12.0 26.0 0.00 0.20 0.00 44 1011.5
20180121130523 64 287 11.0 26.0 0.00 0.20 0.00 44 1011.6
20180121130033 64 313 9.0 21.0 0.00 0.20 0.00 45 1011.5
20180121125518 63 267 9.0 20.0 0.00 0.20 0.00 44 1011.3
20180121125026 63 303 11.0 20.0 0.00 0.20 0.00 45 1011.4
20180121124537 63 296 8.0 25.0 0.00 0.20 0.00 46 1011.3
20180121124023 63 309 12.0 25.0 0.00 0.20 0.00 44 1011.2
20180121123531 62 309 6.0 24.0 0.00 0.20 0.00 45 1011.3
20180121123019 62 269 7.0 27.0 0.00 0.20 0.00 47 1011.4
20180121122524 62 288 13.0 27.0 0.00 0.20 0.00 44 1011.3
20180121113037 61 312 10.0 20.0 0.00 0.20 0.00 42 1011.9
20180121112526 61 257 12.0 21.0 0.00 0.20 0.00 41 1011.9
20180121112035 61 275 12.0 21.0 0.00 0.20 0.00 42 1011.8
20180121111523 61 291 10.0 24.0 0.00 0.20 0.00 41 1011.7
20180121111031 61 282 8.0 22.0 0.00 0.20 0.00 41 1011.6
20180121110518 61 282 10.0 23.0 0.00 0.20 0.00 42 1011.6
20180121110032 61 294 12.0 23.0 0.00 0.20 0.00 41 1011.4
20180121105518 61 298 12.0 18.0 0.00 0.20 0.00 41 1011.4
20180121105026 61 293 11.0 18.0 0.00 0.20 0.00 40 1011.3
20180121104536 61 263 10.0 19.0 0.00 0.20 0.00 40 1011.2
20180121104023 61 275 14.0 22.0 0.00 0.20 0.00 40 1011.2
20180121103530 61 276 12.0 25.0 0.00 0.20 0.00 40 1011.2
20180121103020 61 291 15.0 32.0 0.00 0.20 0.00 40 1011.0
20180121102528 61 281 14.0 32.0 0.00 0.20 0.00 40 1011.0
20180121102037 61 285 14.0 26.0 0.00 0.20 0.00 41 1010.8
20180121101528 61 304 8.0 22.0 0.00 0.20 0.00 41 1010.8
20180121101036 61 280 11.0 21.0 0.00 0.20 0.00 42 1010.9
20180121100522 61 272 9.0 18.0 0.00 0.20 0.00 43 1010.6
20180121094526 60 262 8.0 18.0 0.00 0.20 0.00 45 1010.5
20180121094032 60 257 7.0 23.0 0.00 0.20 0.00 45 1010.7
20180121093520 60 323 12.0 23.0 0.00 0.20 0.00 45 1010.5
20180121093029 60 305 9.0 20.0 0.00 0.20 0.00 45 1010.6
20180121092537 60 262 9.0 21.0 0.00 0.20 0.00 45 1010.5
20180121092028 60 245 11.0 22.0 0.00 0.20 0.00 46 1010.2
20180121090030 59 296 12.0 19.0 0.00 0.20 0.00 48 1010.1
20180121085519 59 285 11.0 26.0 0.00 0.20 0.00 47 1010.0
20180121085022 59 274 11.0 22.0 0.00 0.20 0.00 50 1009.9
20180121084532 59 277 8.0 22.0 0.00 0.20 0.00 51 1009.8
20180121084018 59 276 12.0 22.0 0.00 0.20 0.00 53 1009.7
20180121083526 59 276 11.0 22.0 0.00 0.20 0.00 54 1009.5
20180121083037 59 277 11.0 19.0 0.00 0.20 0.00 53 1009.4
20180121082526 59 259 9.0 19.0 0.00 0.20 0.00 54 1009.4
20180121081037 59 306 9.0 18.0 0.00 0.20 0.00 54 1009.4
20180121080525 59 290 8.0 18.0 0.00 0.20 0.00 55 1009.2
20180121080035 59 287 10.0 18.0 0.00 0.20 0.00 55 1009.2
20180121075524 59 311 9.0 17.0 0.00 0.20 0.00 55 1009.1
20180121075033 59 238 8.0 17.0 0.00 0.20 0.00 55 1008.7
20180121074522 59 284 6.0 16.0 0.00 0.20 0.00 55 1008.8
20180121074031 59 250 6.0 19.0 0.00 0.20 0.00 54 1008.7
20180121073524 59 284 7.0 19.0 0.00 0.20 0.00 54 1008.5
20180121073035 59 299 6.0 19.0 0.00 0.20 0.00 53 1008.7
20180121072524 60 278 7.0 19.0 0.00 0.20 0.00 53 1008.5
20180121072033 60 307 8.0 19.0 0.00 0.20 0.00 53 1008.3
20180121071523 60 292 7.0 29.0 0.00 0.20 0.00 52 1007.8
20180121071032 60 332 15.0 29.0 0.00 0.20 0.00 52 1008.0
20180121070521 60 309 10.0 25.0 0.00 0.20 0.00 52 1008.2
20180121070030 60 299 12.0 25.0 0.00 0.20 0.00 52 1008.0
20180121064036 60 293 9.0 31.0 0.00 0.20 0.00 52 1007.5
20180121063524 60 275 15.0 31.0 0.00 0.20 0.00 52 1007.7
20180121063035 60 308 5.0 20.0 0.00 0.20 0.00 52 1007.3
20180121062523 60 11 6.0 24.0 0.00 0.20 0.00 53 1007.5
20180121062032 60 230 11.0 23.0 0.00 0.20 0.00 53 1007.5
20180121061522 60 277 9.0 23.0 0.00 0.20 0.00 53 1007.4
20180121061030 60 300 7.0 26.0 0.00 0.20 0.00 52 1007.4
20180121060537 60 301 8.0 26.0 0.00 0.20 0.00 53 1007.0
20180121060027 60 274 14.0 26.0 0.00 0.20 0.00 52 1007.1
20180121055539 60 318 7.0 26.0 0.00 0.20 0.00 53 1007.0
20180121055027 60 288 12.0 25.0 0.00 0.20 0.00 54 1006.9
20180121054536 60 267 9.0 21.0 0.00 0.20 0.00 55 1007.0
20180121054025 60 273 10.0 23.0 0.00 0.20 0.00 57 1006.9
20180121053534 60 231 8.0 23.0 0.00 0.20 0.00 58 1006.6
20180121053023 59 217 10.0 22.0 0.00 0.20 0.00 59 1006.6
20180121052532 59 279 12.0 22.0 0.00 0.20 0.00 60 1006.6
20180121052040 59 275 9.0 23.0 0.00 0.20 0.00 61 1006.5
20180121051530 59 254 11.0 26.0 0.00 0.20 0.00 62 1006.3
20180121051023 59 271 8.0 26.0 0.00 0.20 0.00 63 1006.5
20180121050532 58 258 11.0 26.0 0.00 0.20 0.00 65 1006.4
20180121050021 58 273 12.0 24.0 0.00 0.20 0.00 68 1006.3
20180121045531 58 270 9.0 24.0 0.00 0.20 0.00 70 1006.4
20180121045040 58 301 10.0 26.0 0.00 0.20 0.00 72 1006.4
20180121044530 58 252 11.0 26.0 0.00 0.20 0.00 73 1006.5
20180121044039 57 286 14.0 26.0 0.00 0.20 0.00 75 1006.4
20180121043529 57 267 14.0 25.0 0.00 0.20 0.00 75 1006.5
20180121043022 58 279 16.0 31.0 0.00 0.20 0.00 75 1006.3
20180121042531 58 282 16.0 31.0 0.00 0.20 0.00 76 1006.5
20180121042040 58 244 18.0 26.0 0.00 0.20 0.00 76 1006.4
20180121041530 58 294 15.0 32.0 0.00 0.20 0.00 76 1006.6
20180121041039 58 294 15.0 29.0 0.00 0.20 0.00 76 1006.5
20180121040528 58 252 17.0 29.0 0.00 0.20 0.00 76 1006.6
20180121040039 58 281 13.0 27.0 0.00 0.20 0.00 77 1006.5
20180121035526 58 248 14.0 25.0 0.00 0.20 0.00 77 1006.5
20180121035035 58 241 16.0 27.0 0.00 0.20 0.00 77 1006.5
20180121034527 58 298 12.0 22.0 0.00 0.20 0.00 78 1006.5
20180121034036 58 271 13.0 22.0 0.00 0.20 0.00 78 1006.3
20180121033526 58 287 13.0 22.0 0.00 0.20 0.00 79 1006.3
20180121033036 58 306 13.0 25.0 0.00 0.20 0.00 80 1006.3
20180121032526 58 261 14.0 27.0 0.00 0.20 0.00 80 1006.4
20180121032035 57 293 13.0 27.0 0.00 0.20 0.00 81 1006.5
20180121031526 57 281 14.0 26.0 0.00 0.20 0.00 82 1006.5
20180121031034 57 300 12.0 23.0 0.00 0.20 0.00 82 1006.6
20180121030523 57 234 13.0 26.0 0.00 0.20 0.00 82 1006.8
20180121024021 58 284 13.0 22.0 0.00 0.20 0.00 81 1007.4
20180121023530 58 253 14.0 21.0 0.00 0.20 0.00 81 1007.4
20180121023040 58 273 12.0 28.0 0.00 0.20 0.00 80 1007.5
20180121022528 58 306 15.0 28.0 0.00 0.20 0.00 80 1007.5
20180121022037 58 312 13.0 28.0 0.00 0.20 0.00 80 1007.6
20180121021526 58 317 13.0 28.0 0.00 0.20 0.00 80 1007.7
20180121021035 58 292 13.0 26.0 0.00 0.20 0.00 80 1007.8
20180121020528 58 304 13.0 26.0 0.00 0.20 0.00 79 1007.8
20180121020038 58 266 12.0 25.0 0.00 0.20 0.00 79 1007.9
20180121015527 58 269 15.0 30.0 0.00 0.20 0.00 78 1007.9
20180121015035 58 245 15.0 30.0 0.00 0.20 0.00 78 1008.1
20180121014525 58 319 15.0 33.0 0.00 0.20 0.00 78 1008.2
20180121014034 58 319 15.0 33.0 0.00 0.20 0.00 78 1008.1
20180121013523 58 293 15.0 30.0 0.00 0.20 0.00 79 1008.0
20180121013034 58 286 15.0 30.0 0.00 0.20 0.00 79 1008.1
20180121012523 58 273 10.0 25.0 0.00 0.20 0.00 80 1008.1
20180121012036 58 266 12.0 24.0 0.00 0.20 0.00 80 1008.1
20180121010528 58 234 14.0 22.0 0.00 0.20 0.00 81 1008.0
20180121010038 57 239 12.0 20.0 0.00 0.20 0.00 82 1008.1
20180121005527 57 256 9.0 20.0 0.00 0.20 0.00 82 1008.1
20180121005037 57 284 9.0 19.0 0.00 0.20 0.00 82 1008.1
20180121004526 57 267 10.0 19.0 0.00 0.20 0.00 82 1008.2
20180121004035 57 305 6.0 13.0 0.00 0.20 0.00 82 1008.2
20180121003524 57 257 8.0 20.0 0.00 0.20 0.00 82 1008.3
20180121003039 57 263 11.0 20.0 0.00 0.20 0.00 82 1008.3